Regional Weather Roundup
Issued by NWS

Home | Current Version | Previous Version | Graphics & Text | Print | Product List | Glossary On
Versions: 1 2 3 4 5 6 7 8 9 10 11 12 13 14 15 16 17 18 19 20 21 22 23 24 25 26 27 28 29 30 31 32 33 34 35 36 37 38 39 40 41 42 43 44 45 46 47 48 49 50
000
ASUS43 KLOT 240800
RWRIL

ILLINOIS REGIONAL WEATHER ROUNDUP
NATIONAL WEATHER SERVICE CHICAGO/ROMEOVILLE IL
300 AM CDT THU JUL 24 2014

NOTE: "FAIR" INDICATES FEW OR NO CLOUDS BELOW 12,000 FEET WITH NO
SIGNIFICANT WEATHER AND/OR OBSTRUCTIONS TO VISIBILITY.

* THESE STATIONS ARE NOT UNDER NWS QUALITY CONTROL. THEY ALSO MAY NOT
  REPORT WEATHER SUCH AS PRECIPITATION OR FOG.

ILZ001-002-007-009-015-016-024-240900-
NORTHWEST ILLINOIS

CITY           SKY/WX    TMP DP  RH WIND       PRES   REMARKS
MOLINE         CLEAR     59  55  87 CALM      30.15F
STERLING*      CLEAR     55  52  88 CALM      30.17S
$$

ILZ003-004-008-010-011-017-018-240900-
NORTH CENTRAL ILLINOIS

CITY           SKY/WX    TMP DP  RH WIND       PRES   REMARKS
ROCKFORD       CLEAR     58  48  69 NE5       30.18S
FREEPORT*      MOCLDY    53  50  90 CALM      30.19S
$$

ILZ005-006-012>014-019>023-240900-
NORTHEAST ILLINOIS

CITY           SKY/WX    TMP DP  RH WIND       PRES   REMARKS
CHICAGO-OHARE  CLEAR     58  50  75 N8        30.13F
CHICAGO-MIDWAY CLEAR     63  55  75 N7        30.12F
AURORA         CLEAR     56  49  77 N6        30.14F
LANSING*       CLEAR     62  55  75 NE5       30.11F
WAUKEGAN       CLEAR     53  51  93 NW5       30.15S
DUPAGE AIRPORT CLEAR     53  49  86 N7        30.14F
WHEELING       CLEAR     58  52  80 N7        30.15F
NORTHERLY ISL    N/A     61  56  83 N7          N/A
$$

LMZ740>746-240900-
SOUTHERN LAKE MICHIGAN

STATION/POSITION SKY/WX   TEMP    WIND        PRES    VSBY  WAVE
                          AIR SEA DIR/SP/G                  HT/PER
                          (F)     (DEG/KT/KT) (MB)    (MI)  (FT/S)
SOUTHERN BUOY              61 60   40/ 10/ 12 1020.3F         2/ 5
WAUKEGAN HARBOR            58     330/  6/  8 1022.0F
HARRISON CRIB              63      40/ 17/ 19   N/A
BURNHAM HARBOR             61      10/  6/ 13   N/A
CALUMET HARBOR             64      20/  8/ 11 1018.7F
MICHIGAN CITY              63      30/ 15/ 18   N/A
MICHIGAN CITY 6N           65 68   50/ 16/ 19   N/A           6/ 2
ST. JOSEPH                 54 50   10/  6/ 10   N/A           3/ 2
$$

ILZ025>027-034>036-040-047-049-050-058-095>099-240900-
WEST-CENTRAL ILLINOIS

CITY           SKY/WX    TMP DP  RH WIND       PRES   REMARKS
QUINCY         CLEAR     61  56  83 NE3       30.13R
GALESBURG*     CLEAR     58  55  89 CALM      30.16R
MACOMB*        CLEAR     57  56  98 E6        30.16F
$$

ILZ028>032-037-038-041>044-048-051>054-059>061-240900-
CENTRAL ILLINOIS

CITY           SKY/WX    TMP DP  RH WIND       PRES   REMARKS
PONTIAC        CLEAR     54  52  94 N5        30.12F
PEORIA         CLEAR     62  53  72 CALM      30.13F
SPRINGFIELD    CLEAR     57  54  89 N3        30.12F
TAYLORVILLE    NOT AVBL
$$

ILZ033-039-045-046-055>057-062-063-240900-
EAST-CENTRAL ILLINOIS

CITY           SKY/WX    TMP DP  RH WIND       PRES   REMARKS
CHAMPAIGN      CLEAR     57  52  83 N12       30.09F
MATTOON        CLEAR     53  49  86 N6        30.07F
$$

ILZ079-100>102-240900-
SOUTHWEST ILLINOIS

CITY           SKY/WX    TMP DP  RH WIND       PRES   REMARKS
BELLEVILLE     CLEAR     60  54  80 N5        30.08F
CAHOKIA*       CLEAR     62  54  74 NE3       30.09F
SPARTA*        CLEAR     59  52  77 NE7       30.08F
$$

ILZ064>066-069>071-074>076-080>082-084>086-088>090-092>094-240900-
SOUTH-CENTRAL ILLINOIS

CITY           SKY/WX    TMP DP  RH WIND       PRES   REMARKS
CARBONDALE     CLEAR     60  52  74 NW3       30.06F
MT. VERNON     CLEAR     55  48  76 N3        30.06F
SALEM*         CLEAR     58  54  86 CALM      30.08S
$$

ILZ067-068-072-073-078-083-087-091-240900-
SOUTHEAST ILLINOIS

CITY           SKY/WX    TMP DP  RH WIND       PRES   REMARKS
LAWRENCEVILLE  PTCLDY    58  52  80 NW5       30.04F
FLORA*         CLEAR     55  50  84 NW3       30.07F
HARRISBURG*    CLEAR     59  52  78 N5        30.05F
ROBINSON*      MOCLDY    59  54  82 N6        30.06F
$$

ABBREVIATIONS USED IN REMARKS
   TC - TEMPERATURE IN CELSIUS
  WCI - WIND CHILL INDEX
   HX - HEAT INDEX
  VSB - VISIBILITY
$$




USA.gov is the U.S. government's official web portal to all federal, state and local government web resources and services.